Time,TemperatureF,DewpointF,PressureIn,WindDirection,WindDirectionDegrees,WindSpeedMPH,WindSpeedGustMPH,Humidity,HourlyPrecipIn,Conditions,Clouds,dailyrainin,SoftwareType,DateUTC
2013-06-28 00:02:00,68.7,64.4,29.75,NNE,32,6.0,8.0,86,0.00,,,0.04,meteohub,2013-06-28 04:02:00,
2013-06-28 00:07:00,68.4,64.0,29.75,NNE,32,0.0,9.0,86,0.00,,,0.00,meteohub,2013-06-28 04:07:00,
2013-06-28 00:12:00,68.2,63.9,29.72,NE,55,4.0,9.0,86,0.00,,,0.00,meteohub,2013-06-28 04:12:00,
2013-06-28 00:17:00,68.4,64.4,29.72,ENE,78,0.0,9.0,87,0.00,,,0.00,meteohub,2013-06-28 04:17:00,
2013-06-28 00:22:00,68.5,64.6,29.72,SSE,168,4.0,5.0,87,0.00,,,0.00,meteohub,2013-06-28 04:22:00,
2013-06-28 00:27:00,68.5,64.6,29.72,East,100,0.0,9.0,87,0.00,,,0.00,meteohub,2013-06-28 04:27:00,
2013-06-28 00:32:00,68.4,64.4,29.72,SSW,212,0.0,9.0,87,0.00,,,0.00,meteohub,2013-06-28 04:32:00,
2013-06-28 00:37:00,68.2,64.2,29.72,NE,55,0.0,6.0,87,0.00,,,0.00,meteohub,2013-06-28 04:37:00,
2013-06-28 00:42:00,68.2,64.2,29.75,ESE,122,6.0,9.0,87,0.00,,,0.00,meteohub,2013-06-28 04:42:00,
2013-06-28 00:47:00,68.5,64.8,29.75,SSE,168,3.0,9.0,88,0.00,,,0.00,meteohub,2013-06-28 04:47:00,
2013-06-28 00:52:00,68.7,64.9,29.75,WSW,258,0.0,12.0,88,0.00,,,0.00,meteohub,2013-06-28 04:52:00,
2013-06-28 00:57:00,68.7,64.9,29.75,NW,325,5.0,12.0,88,0.00,,,0.00,meteohub,2013-06-28 04:57:00,
2013-06-28 01:02:00,68.5,64.6,29.75,South,190,17.0,17.0,87,0.00,,,0.00,meteohub,2013-06-28 05:02:00,
2013-06-28 01:07:00,68.9,63.5,29.75,NW,325,13.0,25.0,83,0.00,,,0.00,meteohub,2013-06-28 05:07:00,
2013-06-28 01:12:00,68.5,63.5,29.75,NW,325,9.0,25.0,84,0.00,,,0.00,meteohub,2013-06-28 05:12:00,
2013-06-28 01:17:00,68.2,63.1,29.75,WNW,302,7.0,25.0,84,0.00,,,0.00,meteohub,2013-06-28 05:17:00,
2013-06-28 01:22:00,67.6,63.0,29.75,WSW,258,8.0,17.0,85,0.00,,,0.00,meteohub,2013-06-28 05:22:00,
2013-06-28 01:27:00,67.5,62.8,29.75,North,10,2.0,17.0,85,0.04,,,0.04,meteohub,2013-06-28 05:27:00,
2013-06-28 01:32:00,67.1,62.8,29.75,SSE,168,0.0,13.0,86,0.04,,,0.04,meteohub,2013-06-28 05:32:00,
2013-06-28 01:37:00,66.9,63.0,29.75,SSE,168,4.0,8.0,87,0.04,,,0.04,meteohub,2013-06-28 05:37:00,
2013-06-28 01:42:00,66.6,63.0,29.75,ESE,122,5.0,6.0,88,0.04,,,0.04,meteohub,2013-06-28 05:42:00,
2013-06-28 01:47:00,66.4,62.8,29.75,South,190,3.0,9.0,88,0.04,,,0.04,meteohub,2013-06-28 05:47:00,
2013-06-28 01:52:00,66.4,62.8,29.75,SSE,168,5.0,9.0,88,0.04,,,0.04,meteohub,2013-06-28 05:52:00,
2013-06-28 01:57:00,66.2,62.8,29.75,SSE,168,3.0,7.0,89,0.04,,,0.04,meteohub,2013-06-28 05:57:00,
2013-06-28 02:02:00,65.8,62.4,29.75,West,280,4.0,9.0,89,0.04,,,0.04,meteohub,2013-06-28 06:02:00,
2013-06-28 02:07:00,65.8,62.4,29.75,WSW,258,3.0,9.0,89,0.04,,,0.04,meteohub,2013-06-28 06:07:00,
2013-06-28 02:12:00,65.5,62.2,29.75,NNW,348,6.0,6.0,89,0.04,,,0.04,meteohub,2013-06-28 06:12:00,
2013-06-28 02:17:00,65.5,62.2,29.75,WSW,258,6.0,7.0,89,0.04,,,0.04,meteohub,2013-06-28 06:17:00,
2013-06-28 02:22:00,65.7,62.1,29.75,SW,235,3.0,15.0,88,0.04,,,0.04,meteohub,2013-06-28 06:22:00,
2013-06-28 02:27:00,65.5,61.9,29.72,NNE,32,0.0,15.0,88,0.00,,,0.04,meteohub,2013-06-28 06:27:00,
2013-06-28 02:32:00,65.3,61.7,29.72,NNE,32,4.0,15.0,88,0.00,,,0.04,meteohub,2013-06-28 06:32:00,
2013-06-28 02:37:00,65.1,61.5,29.72,SSE,168,5.0,13.0,88,0.00,,,0.04,meteohub,2013-06-28 06:37:00,
2013-06-28 02:42:00,64.8,61.5,29.72,SE,145,3.0,6.0,89,0.00,,,0.04,meteohub,2013-06-28 06:42:00,
2013-06-28 02:47:00,64.9,61.9,29.72,SSE,168,3.0,5.0,90,0.00,,,0.04,meteohub,2013-06-28 06:47:00,
2013-06-28 02:52:00,64.8,61.7,29.72,South,190,0.0,5.0,90,0.00,,,0.04,meteohub,2013-06-28 06:52:00,
2013-06-28 02:57:00,64.6,61.5,29.72,South,190,5.0,11.0,90,0.00,,,0.04,meteohub,2013-06-28 06:57:00,
2013-06-28 03:02:00,64.6,61.5,29.72,ESE,122,3.0,11.0,90,0.00,,,0.04,meteohub,2013-06-28 07:02:00,
2013-06-28 03:07:00,64.4,61.3,29.72,SSE,168,5.0,5.0,90,0.00,,,0.04,meteohub,2013-06-28 07:07:00,
2013-06-28 03:12:00,64.2,61.5,29.72,South,190,4.0,7.0,91,0.00,,,0.04,meteohub,2013-06-28 07:12:00,
2013-06-28 03:17:00,64.2,61.5,29.72,WNW,302,6.0,9.0,91,0.00,,,0.04,meteohub,2013-06-28 07:17:00,
2013-06-28 03:22:00,64.2,61.5,29.72,NNW,348,6.0,9.0,91,0.00,,,0.04,meteohub,2013-06-28 07:22:00,
2013-06-28 03:27:00,64.2,61.9,29.72,SSE,168,4.0,9.0,92,0.00,,,0.04,meteohub,2013-06-28 07:27:00,
2013-06-28 03:32:00,64.2,61.9,29.72,ENE,78,0.0,9.0,92,0.00,,,0.04,meteohub,2013-06-28 07:32:00,
2013-06-28 03:37:00,64.2,61.9,29.72,SSW,212,0.0,7.0,92,0.00,,,0.04,meteohub,2013-06-28 07:37:00,
2013-06-28 03:42:00,64.0,61.7,29.72,South,190,3.0,4.0,92,0.00,,,0.04,meteohub,2013-06-28 07:42:00,
2013-06-28 03:47:00,64.0,62.1,29.72,SSE,168,0.0,7.0,93,0.00,,,0.04,meteohub,2013-06-28 07:47:00,
2013-06-28 03:52:00,64.0,62.1,29.72,ESE,122,0.0,9.0,93,0.00,,,0.04,meteohub,2013-06-28 07:52:00,
2013-06-28 03:57:00,63.9,61.9,29.72,NE,55,0.0,9.0,93,0.00,,,0.04,meteohub,2013-06-28 07:57:00,
2013-06-28 04:02:00,63.9,62.1,29.72,North,10,0.0,9.0,94,0.00,,,0.04,meteohub,2013-06-28 08:02:00,
2013-06-28 04:07:00,63.9,62.1,29.72,NE,55,0.0,3.0,94,0.00,,,0.04,meteohub,2013-06-28 08:07:00,
2013-06-28 04:12:00,63.9,62.4,29.72,ESE,122,0.0,3.0,95,0.00,,,0.04,meteohub,2013-06-28 08:12:00,
2013-06-28 04:17:00,63.9,62.4,29.72,NNW,348,0.0,3.0,95,0.00,,,0.04,meteohub,2013-06-28 08:17:00,
2013-06-28 04:22:00,63.9,62.4,29.72,ENE,78,0.0,3.0,95,0.00,,,0.04,meteohub,2013-06-28 08:22:00,
2013-06-28 04:27:00,63.7,62.2,29.69,NW,325,0.0,0.0,95,0.00,,,0.04,meteohub,2013-06-28 08:27:00,
2013-06-28 04:32:00,63.7,62.2,29.69,SSE,168,0.0,3.0,95,0.00,,,0.04,meteohub,2013-06-28 08:32:00,
2013-06-28 04:37:00,63.5,62.1,29.69,ESE,122,0.0,3.0,95,0.00,,,0.04,meteohub,2013-06-28 08:37:00,
2013-06-28 04:42:00,63.7,62.6,29.72,ENE,78,0.0,4.0,96,0.00,,,0.04,meteohub,2013-06-28 08:42:00,
2013-06-28 04:47:00,63.7,62.6,29.72,ENE,78,0.0,4.0,96,0.00,,,0.04,meteohub,2013-06-28 08:47:00,
2013-06-28 04:52:00,63.7,62.6,29.72,ENE,78,3.0,4.0,96,0.00,,,0.04,meteohub,2013-06-28 08:52:00,
2013-06-28 04:57:00,63.7,62.6,29.72,NE,55,0.0,5.0,96,0.00,,,0.04,meteohub,2013-06-28 08:57:00,
2013-06-28 05:02:00,63.5,62.6,29.72,ENE,78,0.0,5.0,97,0.00,,,0.04,meteohub,2013-06-28 09:02:00,
2013-06-28 05:07:00,63.7,62.8,29.72,ESE,122,0.0,5.0,97,0.00,,,0.04,meteohub,2013-06-28 09:07:00,
2013-06-28 05:12:00,63.7,62.8,29.72,NNW,348,0.0,5.0,97,0.00,,,0.04,meteohub,2013-06-28 09:12:00,
2013-06-28 05:17:00,63.7,62.8,29.72,NNE,32,0.0,5.0,97,0.00,,,0.04,meteohub,2013-06-28 09:17:00,
2013-06-28 05:22:00,63.9,63.3,29.72,North,10,0.0,6.0,98,0.00,,,0.04,meteohub,2013-06-28 09:22:00,
2013-06-28 05:27:00,63.7,63.1,29.72,NNE,32,6.0,6.0,98,0.00,,,0.04,meteohub,2013-06-28 09:27:00,
2013-06-28 05:32:00,63.5,63.0,29.72,North,10,2.0,9.0,98,0.00,,,0.04,meteohub,2013-06-28 09:32:00,
2013-06-28 05:37:00,63.7,63.1,29.72,East,100,0.0,9.0,98,0.00,,,0.04,meteohub,2013-06-28 09:37:00,
2013-06-28 05:42:00,63.7,63.1,29.72,NE,55,0.0,9.0,98,0.00,,,0.04,meteohub,2013-06-28 09:42:00,
2013-06-28 05:47:00,63.7,63.1,29.72,East,100,0.0,5.0,98,0.00,,,0.04,meteohub,2013-06-28 09:47:00,
2013-06-28 05:52:00,64.8,64.2,29.72,East,100,5.0,15.0,98,0.00,,,0.04,meteohub,2013-06-28 09:52:00,
2013-06-28 05:57:00,64.8,64.2,29.72,WNW,302,2.0,15.0,98,0.00,,,0.04,meteohub,2013-06-28 09:57:00,
2013-06-28 06:02:00,64.8,64.2,29.69,NE,55,0.0,15.0,98,0.00,,,0.04,meteohub,2013-06-28 10:02:00,
2013-06-28 06:07:00,64.8,64.2,29.69,SSE,168,0.0,15.0,98,0.00,,,0.04,meteohub,2013-06-28 10:07:00,
2013-06-28 06:12:00,64.6,64.0,29.69,NNW,348,4.0,9.0,98,0.00,,,0.04,meteohub,2013-06-28 10:12:00,
2013-06-28 06:17:00,64.4,63.9,29.69,NW,325,2.0,20.0,98,0.00,,,0.04,meteohub,2013-06-28 10:17:00,
2013-06-28 06:22:00,64.4,63.9,29.69,NW,325,3.0,20.0,98,0.00,,,0.04,meteohub,2013-06-28 10:22:00,
2013-06-28 06:27:00,64.4,63.9,29.72,ENE,78,0.0,6.0,98,0.00,,,0.04,meteohub,2013-06-28 10:27:00,
2013-06-28 06:32:00,64.6,64.0,29.72,West,280,0.0,6.0,98,0.00,,,0.04,meteohub,2013-06-28 10:32:00,
2013-06-28 06:37:00,64.9,64.4,29.72,South,190,3.0,5.0,98,0.00,,,0.04,meteohub,2013-06-28 10:37:00,
2013-06-28 06:42:00,65.3,64.8,29.72,WSW,258,3.0,4.0,98,0.00,,,0.04,meteohub,2013-06-28 10:42:00,
2013-06-28 06:47:00,65.8,65.3,29.72,NNW,348,2.0,5.0,98,0.00,,,0.04,meteohub,2013-06-28 10:47:00,
2013-06-28 06:52:00,65.3,64.8,29.72,NNE,32,0.0,9.0,98,0.00,,,0.04,meteohub,2013-06-28 10:52:00,
2013-06-28 06:57:00,65.5,64.9,29.72,East,100,0.0,9.0,98,0.00,,,0.04,meteohub,2013-06-28 10:57:00,
2013-06-28 07:02:00,66.2,65.7,29.72,North,10,7.0,9.0,98,0.00,,,0.04,meteohub,2013-06-28 11:02:00,
2013-06-28 07:07:00,65.3,64.8,29.72,SE,145,0.0,10.0,98,0.00,,,0.04,meteohub,2013-06-28 11:07:00,
2013-06-28 07:12:00,65.3,64.8,29.72,East,100,0.0,10.0,98,0.00,,,0.04,meteohub,2013-06-28 11:12:00,
2013-06-28 07:17:00,65.5,64.9,29.72,SE,145,3.0,9.0,98,0.00,,,0.04,meteohub,2013-06-28 11:17:00,
2013-06-28 07:22:00,65.7,65.1,29.72,East,100,4.0,5.0,98,0.04,,,0.08,meteohub,2013-06-28 11:22:00,
2013-06-28 07:32:00,65.7,65.1,29.72,ESE,122,0.0,6.0,98,0.09,,,0.13,meteohub,2013-06-28 11:32:00,
2013-06-28 07:37:00,65.7,65.1,29.72,West,280,3.0,7.0,98,0.09,,,0.13,meteohub,2013-06-28 11:37:00,
2013-06-28 07:42:00,65.8,65.3,29.72,ESE,122,0.0,7.0,98,0.09,,,0.13,meteohub,2013-06-28 11:42:00,
2013-06-28 07:47:00,66.0,65.5,29.72,SE,145,0.0,7.0,98,0.09,,,0.13,meteohub,2013-06-28 11:47:00,
2013-06-28 07:52:00,66.2,65.7,29.72,ESE,122,0.0,3.0,98,0.09,,,0.13,meteohub,2013-06-28 11:52:00,
2013-06-28 07:57:00,66.4,65.8,29.72,NNW,348,0.0,0.0,98,0.09,,,0.13,meteohub,2013-06-28 11:57:00,
2013-06-28 08:02:00,66.4,65.8,29.72,East,100,0.0,0.0,98,0.09,,,0.13,meteohub,2013-06-28 12:02:00,
2013-06-28 08:07:00,66.7,66.2,29.72,East,100,0.0,0.0,98,0.09,,,0.13,meteohub,2013-06-28 12:07:00,
2013-06-28 08:12:00,67.1,66.6,29.69,East,100,0.0,0.0,98,0.09,,,0.13,meteohub,2013-06-28 12:12:00,
2013-06-28 08:17:00,67.1,66.6,29.69,NNE,32,0.0,0.0,98,0.09,,,0.13,meteohub,2013-06-28 12:17:00,
2013-06-28 08:22:00,67.3,66.7,29.69,ESE,122,0.0,0.0,98,0.00,,,0.13,meteohub,2013-06-28 12:22:00,
2013-06-28 08:27:00,67.3,66.7,29.69,NNE,32,0.0,0.0,98,0.00,,,0.13,meteohub,2013-06-28 12:27:00,
2013-06-28 08:32:00,67.3,66.7,29.69,NNW,348,0.0,5.0,98,0.00,,,0.13,meteohub,2013-06-28 12:32:00,
2013-06-28 08:37:00,67.6,67.1,29.69,NNW,348,0.0,5.0,98,0.00,,,0.13,meteohub,2013-06-28 12:37:00,
2013-06-28 08:42:00,67.8,67.3,29.69,North,10,4.0,4.0,98,0.00,,,0.13,meteohub,2013-06-28 12:42:00,
2013-06-28 08:47:00,68.4,67.8,29.69,SSW,212,9.0,9.0,98,0.00,,,0.13,meteohub,2013-06-28 12:47:00,
2013-06-28 08:52:00,68.7,68.2,29.69,East,100,3.0,12.0,98,0.00,,,0.13,meteohub,2013-06-28 12:52:00,
2013-06-28 08:57:00,69.1,68.5,29.66,ESE,122,2.0,12.0,98,0.00,,,0.13,meteohub,2013-06-28 12:57:00,
2013-06-28 09:02:00,70.0,69.4,29.66,SSE,168,5.0,12.0,98,0.00,,,0.13,meteohub,2013-06-28 13:02:00,
2013-06-28 09:07:00,70.0,69.1,29.66,West,280,6.0,10.0,97,0.00,,,0.13,meteohub,2013-06-28 13:07:00,
2013-06-28 09:12:00,70.9,69.4,29.69,North,10,6.0,20.0,95,0.00,,,0.13,meteohub,2013-06-28 13:12:00,
2013-06-28 09:17:00,71.1,69.6,29.69,WNW,302,8.0,20.0,95,0.00,,,0.13,meteohub,2013-06-28 13:17:00,
2013-06-28 09:22:00,71.4,69.6,29.69,WNW,302,4.0,20.0,94,0.00,,,0.13,meteohub,2013-06-28 13:22:00,
2013-06-28 09:27:00,72.1,69.1,29.69,WNW,302,13.0,17.0,90,0.00,,,0.13,meteohub,2013-06-28 13:27:00,
2013-06-28 09:32:00,72.3,69.6,29.69,WSW,258,7.0,17.0,91,0.00,,,0.13,meteohub,2013-06-28 13:32:00,
2013-06-28 09:37:00,72.9,69.8,29.69,South,190,9.0,16.0,90,0.00,,,0.13,meteohub,2013-06-28 13:37:00,
2013-06-28 09:42:00,73.2,69.4,29.72,North,10,4.0,16.0,88,0.00,,,0.13,meteohub,2013-06-28 13:42:00,
2013-06-28 09:47:00,73.4,69.3,29.72,NNE,32,8.0,12.0,87,0.00,,,0.13,meteohub,2013-06-28 13:47:00,
2013-06-28 09:52:00,73.8,68.4,29.72,SSE,168,5.0,17.0,83,0.00,,,0.13,meteohub,2013-06-28 13:52:00,
2013-06-28 09:57:00,74.1,68.5,29.69,ENE,78,11.0,17.0,83,0.00,,,0.13,meteohub,2013-06-28 13:57:00,
2013-06-28 10:02:00,74.7,67.6,29.69,WNW,302,16.0,17.0,79,0.00,,,0.13,meteohub,2013-06-28 14:02:00,
2013-06-28 10:07:00,74.8,67.5,29.69,North,10,11.0,21.0,78,0.00,,,0.13,meteohub,2013-06-28 14:07:00,
2013-06-28 10:12:00,75.0,66.9,29.69,SW,235,15.0,21.0,76,0.00,,,0.13,meteohub,2013-06-28 14:12:00,
2013-06-28 10:17:00,75.2,65.1,29.69,North,10,16.0,21.0,71,0.00,,,0.13,meteohub,2013-06-28 14:17:00,
2013-06-28 10:22:00,75.6,65.1,29.69,SSW,212,6.0,21.0,70,0.00,,,0.13,meteohub,2013-06-28 14:22:00,
2013-06-28 10:27:00,75.7,65.7,29.69,ENE,78,12.0,21.0,71,0.00,,,0.13,meteohub,2013-06-28 14:27:00,
2013-06-28 10:32:00,75.9,64.9,29.69,NNW,348,6.0,21.0,69,0.00,,,0.13,meteohub,2013-06-28 14:32:00,
2013-06-28 10:37:00,76.3,64.9,29.69,SW,235,7.0,19.0,68,0.00,,,0.13,meteohub,2013-06-28 14:37:00,
2013-06-28 10:42:00,76.5,63.9,29.69,WNW,302,14.0,20.0,65,0.00,,,0.13,meteohub,2013-06-28 14:42:00,
2013-06-28 10:47:00,76.8,63.7,29.69,NNW,348,13.0,39.0,64,0.00,,,0.13,meteohub,2013-06-28 14:47:00,
2013-06-28 10:52:00,77.0,63.9,29.69,NNW,348,11.0,39.0,64,0.00,,,0.13,meteohub,2013-06-28 14:52:00,
2013-06-28 10:57:00,77.2,64.6,29.69,WNW,302,5.0,39.0,65,0.00,,,0.13,meteohub,2013-06-28 14:57:00,
2013-06-28 11:02:00,77.4,62.4,29.69,SSW,212,9.0,28.0,60,0.00,,,0.13,meteohub,2013-06-28 15:02:00,
2013-06-28 11:07:00,77.5,61.5,29.69,North,10,21.0,28.0,58,0.00,,,0.13,meteohub,2013-06-28 15:07:00,
2013-06-28 11:12:00,77.5,60.6,29.69,NNW,348,4.0,24.0,56,0.00,,,0.13,meteohub,2013-06-28 15:12:00,
2013-06-28 11:17:00,77.9,62.4,29.69,NNE,32,12.0,24.0,59,0.00,,,0.13,meteohub,2013-06-28 15:17:00,
2013-06-28 11:22:00,78.3,63.3,29.69,WNW,302,11.0,27.0,60,0.00,,,0.13,meteohub,2013-06-28 15:22:00,
2013-06-28 11:27:00,78.6,60.1,29.69,NNE,32,5.0,27.0,53,0.00,,,0.13,meteohub,2013-06-28 15:27:00,
2013-06-28 11:32:00,78.6,58.5,29.69,SE,145,25.0,25.0,50,0.00,,,0.13,meteohub,2013-06-28 15:32:00,
2013-06-28 11:37:00,78.6,57.9,29.69,NNW,348,21.0,30.0,49,0.00,,,0.13,meteohub,2013-06-28 15:37:00,
2013-06-28 11:42:00,79.2,57.7,29.69,NNW,348,15.0,30.0,48,0.00,,,0.13,meteohub,2013-06-28 15:42:00,
2013-06-28 11:47:00,79.2,57.7,29.69,NW,325,12.0,30.0,48,0.00,,,0.13,meteohub,2013-06-28 15:47:00,
2013-06-28 11:52:00,79.5,59.2,29.69,North,10,29.0,29.0,50,0.00,,,0.13,meteohub,2013-06-28 15:52:00,
2013-06-28 11:57:00,79.5,57.0,29.69,North,10,8.0,34.0,46,0.00,,,0.13,meteohub,2013-06-28 15:57:00,
2013-06-28 12:02:00,80.1,58.1,29.69,North,10,4.0,34.0,47,0.00,,,0.13,meteohub,2013-06-28 16:02:00,
2013-06-28 12:07:00,80.1,56.8,29.69,NNW,348,7.0,34.0,45,0.00,,,0.13,meteohub,2013-06-28 16:07:00,
2013-06-28 12:12:00,80.2,56.3,29.69,NW,325,17.0,37.0,44,0.00,,,0.13,meteohub,2013-06-28 16:12:00,
2013-06-28 12:17:00,80.2,57.0,29.69,NW,325,8.0,37.0,45,0.00,,,0.13,meteohub,2013-06-28 16:17:00,
2013-06-28 12:22:00,80.2,55.8,29.69,NE,55,17.0,36.0,43,0.00,,,0.13,meteohub,2013-06-28 16:22:00,
2013-06-28 12:32:00,80.8,56.1,29.69,NNW,348,16.0,25.0,43,0.00,,,0.13,meteohub,2013-06-28 16:32:00,
2013-06-28 12:37:00,80.6,56.1,29.69,South,190,5.0,22.0,43,0.00,,,0.13,meteohub,2013-06-28 16:37:00,
2013-06-28 12:42:00,81.0,57.0,29.66,South,190,3.0,21.0,44,0.00,,,0.13,meteohub,2013-06-28 16:42:00,
2013-06-28 12:47:00,80.2,56.3,29.66,WSW,258,7.0,21.0,44,0.00,,,0.13,meteohub,2013-06-28 16:47:00,
2013-06-28 12:52:00,80.1,55.6,29.66,WSW,258,12.0,20.0,43,0.00,,,0.13,meteohub,2013-06-28 16:52:00,
2013-06-28 12:57:00,80.1,54.9,29.69,NNW,348,26.0,26.0,42,0.00,,,0.13,meteohub,2013-06-28 16:57:00,
2013-06-28 13:02:00,80.4,55.9,29.69,East,100,21.0,30.0,43,0.00,,,0.13,meteohub,2013-06-28 17:02:00,
2013-06-28 13:07:00,80.2,54.3,29.69,SSW,212,17.0,31.0,41,0.00,,,0.13,meteohub,2013-06-28 17:07:00,
2013-06-28 13:17:00,80.8,54.9,29.66,South,190,13.0,31.0,41,0.00,,,0.13,meteohub,2013-06-28 17:17:00,
2013-06-28 13:22:00,81.0,56.3,29.66,East,100,17.0,29.0,43,0.00,,,0.13,meteohub,2013-06-28 17:22:00,
2013-06-28 13:27:00,80.8,54.1,29.66,North,10,13.0,26.0,40,0.00,,,0.13,meteohub,2013-06-28 17:27:00,
2013-06-28 13:32:00,81.1,55.9,29.66,SSW,212,7.0,26.0,42,0.00,,,0.13,meteohub,2013-06-28 17:32:00,
2013-06-28 13:37:00,81.0,54.3,29.66,ENE,78,14.0,25.0,40,0.00,,,0.13,meteohub,2013-06-28 17:37:00,
2013-06-28 13:42:00,81.1,54.5,29.66,NE,55,8.0,29.0,40,0.00,,,0.13,meteohub,2013-06-28 17:42:00,
2013-06-28 13:47:00,81.3,54.7,29.66,SW,235,8.0,29.0,40,0.00,,,0.13,meteohub,2013-06-28 17:47:00,
2013-06-28 13:52:00,81.5,54.9,29.66,SSE,168,17.0,29.0,40,0.00,,,0.13,meteohub,2013-06-28 17:52:00,
2013-06-28 13:57:00,81.7,54.3,29.66,SE,145,7.0,31.0,39,0.00,,,0.13,meteohub,2013-06-28 17:57:00,
2013-06-28 14:02:00,81.5,52.7,29.66,WNW,302,25.0,35.0,37,0.00,,,0.13,meteohub,2013-06-28 18:02:00,
2013-06-28 14:07:00,81.3,51.8,29.66,North,10,11.0,35.0,36,0.00,,,0.13,meteohub,2013-06-28 18:07:00,
2013-06-28 14:12:00,81.5,52.7,29.63,SE,145,13.0,35.0,37,0.00,,,0.13,meteohub,2013-06-28 18:12:00,
2013-06-28 14:17:00,81.7,53.6,29.63,NNW,348,13.0,26.0,38,0.00,,,0.13,meteohub,2013-06-28 18:17:00,
2013-06-28 14:22:00,82.0,54.0,29.63,NNW,348,13.0,21.0,38,0.00,,,0.13,meteohub,2013-06-28 18:22:00,
2013-06-28 14:27:00,81.9,53.1,29.63,North,10,12.0,17.0,37,0.00,,,0.13,meteohub,2013-06-28 18:27:00,
2013-06-28 14:32:00,82.2,53.4,29.63,WSW,258,9.0,26.0,37,0.00,,,0.13,meteohub,2013-06-28 18:32:00,
2013-06-28 14:37:00,82.4,54.3,29.63,NNW,348,14.0,26.0,38,0.00,,,0.13,meteohub,2013-06-28 18:37:00,
2013-06-28 14:42:00,81.9,53.8,29.63,ESE,122,5.0,22.0,38,0.00,,,0.13,meteohub,2013-06-28 18:42:00,
2013-06-28 14:47:00,82.6,52.9,29.63,NW,325,12.0,22.0,36,0.00,,,0.13,meteohub,2013-06-28 18:47:00,
2013-06-28 14:52:00,82.2,52.7,29.63,WNW,302,4.0,22.0,36,0.00,,,0.13,meteohub,2013-06-28 18:52:00,
2013-06-28 15:02:00,81.9,50.0,29.63,WSW,258,12.0,22.0,33,0.00,,,0.13,meteohub,2013-06-28 19:02:00,
2013-06-28 15:07:00,82.4,52.0,29.63,West,280,8.0,28.0,35,0.00,,,0.13,meteohub,2013-06-28 19:07:00,
2013-06-28 15:12:00,82.0,50.2,29.60,SSW,212,14.0,28.0,33,0.00,,,0.13,meteohub,2013-06-28 19:12:00,
2013-06-28 15:17:00,82.2,50.2,29.60,NW,325,24.0,25.0,33,0.00,,,0.13,meteohub,2013-06-28 19:17:00,
2013-06-28 15:22:00,82.2,51.1,29.60,NNW,348,14.0,27.0,34,0.00,,,0.13,meteohub,2013-06-28 19:22:00,
2013-06-28 15:27:00,82.6,50.5,29.63,NNW,348,9.0,27.0,33,0.00,,,0.13,meteohub,2013-06-28 19:27:00,
2013-06-28 15:32:00,82.9,52.5,29.63,South,190,11.0,27.0,35,0.00,,,0.13,meteohub,2013-06-28 19:32:00,
2013-06-28 15:37:00,82.6,50.5,29.63,NNW,348,12.0,16.0,33,0.00,,,0.13,meteohub,2013-06-28 19:37:00,
2013-06-28 15:42:00,82.8,52.3,29.63,SSW,212,11.0,16.0,35,0.00,,,0.13,meteohub,2013-06-28 19:42:00,
2013-06-28 15:47:00,82.6,50.5,29.63,ENE,78,24.0,24.0,33,0.00,,,0.13,meteohub,2013-06-28 19:47:00,
2013-06-28 15:52:00,82.2,49.5,29.63,SW,235,9.0,24.0,32,0.00,,,0.13,meteohub,2013-06-28 19:52:00,
2013-06-28 15:57:00,82.0,49.3,29.63,West,280,11.0,24.0,32,0.00,,,0.13,meteohub,2013-06-28 19:57:00,
2013-06-28 16:02:00,82.2,50.2,29.63,SSE,168,15.0,24.0,33,0.00,,,0.13,meteohub,2013-06-28 20:02:00,
2013-06-28 16:07:00,82.4,50.4,29.63,North,10,8.0,25.0,33,0.00,,,0.13,meteohub,2013-06-28 20:07:00,
2013-06-28 16:12:00,82.2,50.2,29.63,West,280,25.0,25.0,33,0.00,,,0.13,meteohub,2013-06-28 20:12:00,
2013-06-28 16:17:00,82.0,50.2,29.63,WSW,258,6.0,25.0,33,0.00,,,0.13,meteohub,2013-06-28 20:17:00,
2013-06-28 16:22:00,82.2,50.2,29.63,West,280,8.0,25.0,33,0.00,,,0.13,meteohub,2013-06-28 20:22:00,
2013-06-28 16:27:00,82.0,49.3,29.60,NNW,348,8.0,25.0,32,0.00,,,0.13,meteohub,2013-06-28 20:27:00,
2013-06-28 16:32:00,82.2,50.2,29.60,West,280,11.0,17.0,33,0.00,,,0.13,meteohub,2013-06-28 20:32:00,
2013-06-28 16:37:00,82.8,50.7,29.60,WNW,302,5.0,16.0,33,0.00,,,0.13,meteohub,2013-06-28 20:37:00,
2013-06-28 16:47:00,82.2,49.5,29.60,NNW,348,7.0,25.0,32,0.00,,,0.13,meteohub,2013-06-28 20:47:00,
2013-06-28 16:52:00,82.2,50.2,29.60,WSW,258,16.0,25.0,33,0.00,,,0.13,meteohub,2013-06-28 20:52:00,
2013-06-28 16:57:00,82.4,50.4,29.60,WNW,302,15.0,25.0,33,0.00,,,0.13,meteohub,2013-06-28 20:57:00,
2013-06-28 17:02:00,82.2,49.5,29.60,NNW,348,17.0,22.0,32,0.00,,,0.13,meteohub,2013-06-28 21:02:00,
2013-06-28 17:07:00,82.6,49.8,29.60,SW,235,10.0,22.0,32,0.00,,,0.13,meteohub,2013-06-28 21:07:00,
2013-06-28 17:12:00,82.8,49.8,29.60,North,10,8.0,21.0,32,0.00,,,0.13,meteohub,2013-06-28 21:12:00,
2013-06-28 17:17:00,82.9,50.9,29.60,NNE,32,8.0,21.0,33,0.00,,,0.13,meteohub,2013-06-28 21:17:00,
2013-06-28 17:22:00,82.8,49.8,29.60,SSE,168,16.0,16.0,32,0.00,,,0.13,meteohub,2013-06-28 21:22:00,
2013-06-28 17:32:00,82.9,50.0,29.60,NW,325,11.0,16.0,32,0.00,,,0.13,meteohub,2013-06-28 21:32:00,
2013-06-28 17:37:00,83.1,50.2,29.60,East,100,11.0,16.0,32,0.00,,,0.13,meteohub,2013-06-28 21:37:00,
2013-06-28 17:42:00,82.6,49.8,29.60,North,10,12.0,17.0,32,0.00,,,0.13,meteohub,2013-06-28 21:42:00,
2013-06-28 17:47:00,82.4,49.6,29.60,SSW,212,6.0,17.0,32,0.00,,,0.13,meteohub,2013-06-28 21:47:00,
2013-06-28 17:52:00,82.4,50.4,29.60,SSW,212,11.0,17.0,33,0.00,,,0.13,meteohub,2013-06-28 21:52:00,
2013-06-28 18:02:00,81.7,49.8,29.60,WSW,258,8.0,22.0,33,0.00,,,0.13,meteohub,2013-06-28 22:02:00,
2013-06-28 18:07:00,81.9,50.7,29.60,NE,55,14.0,25.0,34,0.00,,,0.13,meteohub,2013-06-28 22:07:00,
2013-06-28 18:12:00,81.9,50.0,29.60,NW,325,22.0,25.0,33,0.00,,,0.13,meteohub,2013-06-28 22:12:00,
2013-06-28 18:17:00,82.2,51.1,29.60,WSW,258,8.0,22.0,34,0.00,,,0.13,meteohub,2013-06-28 22:17:00,
2013-06-28 18:22:00,82.0,50.2,29.60,South,190,12.0,22.0,33,0.00,,,0.13,meteohub,2013-06-28 22:22:00,
2013-06-28 18:27:00,81.5,49.6,29.60,WNW,302,9.0,12.0,33,0.00,,,0.13,meteohub,2013-06-28 22:27:00,
2013-06-28 18:32:00,81.3,50.4,29.60,SSW,212,5.0,16.0,34,0.00,,,0.13,meteohub,2013-06-28 22:32:00,
2013-06-28 18:37:00,81.0,50.0,29.60,SSW,212,7.0,16.0,34,0.00,,,0.13,meteohub,2013-06-28 22:37:00,
2013-06-28 18:42:00,81.0,50.0,29.60,SSE,168,5.0,16.0,34,0.00,,,0.13,meteohub,2013-06-28 22:42:00,
2013-06-28 18:47:00,80.6,49.6,29.60,ESE,122,7.0,14.0,34,0.00,,,0.13,meteohub,2013-06-28 22:47:00,
2013-06-28 18:52:00,80.2,50.2,29.60,SW,235,7.0,13.0,35,0.00,,,0.13,meteohub,2013-06-28 22:52:00,
2013-06-28 18:57:00,80.2,50.2,29.60,NNW,348,9.0,26.0,35,0.00,,,0.13,meteohub,2013-06-28 22:57:00,
2013-06-28 19:02:00,80.2,50.2,29.60,NNE,32,4.0,26.0,35,0.00,,,0.13,meteohub,2013-06-28 23:02:00,
2013-06-28 19:07:00,80.2,50.9,29.60,SW,235,11.0,26.0,36,0.00,,,0.13,meteohub,2013-06-28 23:07:00,
2013-06-28 19:12:00,79.5,50.2,29.60,West,280,17.0,17.0,36,0.00,,,0.13,meteohub,2013-06-28 23:12:00,
2013-06-28 19:17:00,79.5,50.2,29.60,NE,55,5.0,17.0,36,0.00,,,0.13,meteohub,2013-06-28 23:17:00,
2013-06-28 19:22:00,79.3,50.0,29.60,North,10,7.0,17.0,36,0.00,,,0.13,meteohub,2013-06-28 23:22:00,
2013-06-28 19:27:00,79.2,49.1,29.60,East,100,14.0,21.0,35,0.00,,,0.13,meteohub,2013-06-28 23:27:00,
2013-06-28 19:32:00,79.2,49.1,29.60,NNW,348,10.0,21.0,35,0.00,,,0.13,meteohub,2013-06-28 23:32:00,
2013-06-28 19:37:00,79.0,49.1,29.60,ESE,122,4.0,21.0,35,0.00,,,0.13,meteohub,2013-06-28 23:37:00,
2013-06-28 19:42:00,78.6,49.5,29.63,NW,325,8.0,14.0,36,0.00,,,0.13,meteohub,2013-06-28 23:42:00,
2013-06-28 19:47:00,77.9,50.2,29.63,East,100,5.0,12.0,38,0.00,,,0.13,meteohub,2013-06-28 23:47:00,
2013-06-28 19:52:00,77.7,49.5,29.63,SE,145,4.0,11.0,37,0.00,,,0.13,meteohub,2013-06-28 23:52:00,
2013-06-28 19:57:00,77.4,50.5,29.63,SE,145,2.0,10.0,39,0.00,,,0.13,meteohub,2013-06-28 23:57:00,
2013-06-28 20:02:00,76.6,50.5,29.63,North,10,4.0,10.0,40,0.00,,,0.13,meteohub,2013-06-29 00:02:00,
2013-06-28 20:07:00,77.0,50.9,29.63,SW,235,17.0,17.0,40,0.00,,,0.13,meteohub,2013-06-29 00:07:00,
2013-06-28 20:12:00,76.5,50.4,29.63,NNW,348,15.0,17.0,40,0.00,,,0.13,meteohub,2013-06-29 00:12:00,
2013-06-28 20:17:00,76.1,50.0,29.63,West,280,3.0,17.0,40,0.00,,,0.13,meteohub,2013-06-29 00:17:00,
2013-06-28 20:22:00,75.7,50.4,29.63,SSW,212,5.0,17.0,41,0.00,,,0.13,meteohub,2013-06-29 00:22:00,
2013-06-28 20:27:00,75.4,50.7,29.63,East,100,6.0,15.0,42,0.00,,,0.13,meteohub,2013-06-29 00:27:00,
2013-06-28 20:32:00,75.7,50.4,29.63,NNE,32,3.0,12.0,41,0.00,,,0.13,meteohub,2013-06-29 00:32:00,
2013-06-28 20:42:00,75.2,51.8,29.63,South,190,6.0,8.0,44,0.00,,,0.13,meteohub,2013-06-29 00:42:00,
2013-06-28 20:47:00,74.8,51.4,29.63,SE,145,3.0,6.0,44,0.00,,,0.13,meteohub,2013-06-29 00:47:00,
2013-06-28 20:52:00,74.7,52.0,29.63,SE,145,2.0,6.0,45,0.00,,,0.13,meteohub,2013-06-29 00:52:00,
2013-06-28 20:57:00,74.1,51.4,29.63,WNW,302,0.0,6.0,45,0.00,,,0.13,meteohub,2013-06-29 00:57:00,
2013-06-28 21:02:00,73.8,51.1,29.63,North,10,5.0,7.0,45,0.00,,,0.13,meteohub,2013-06-29 01:02:00,
2013-06-28 21:07:00,73.0,51.6,29.63,SSW,212,5.0,7.0,47,0.00,,,0.13,meteohub,2013-06-29 01:07:00,
2013-06-28 21:12:00,72.9,52.0,29.60,WSW,258,4.0,7.0,48,0.00,,,0.13,meteohub,2013-06-29 01:12:00,
2013-06-28 21:17:00,73.0,52.2,29.60,SSE,168,5.0,8.0,48,0.00,,,0.13,meteohub,2013-06-29 01:17:00,
2013-06-28 21:22:00,72.7,52.5,29.60,SSE,168,0.0,8.0,49,0.00,,,0.13,meteohub,2013-06-29 01:22:00,
2013-06-28 21:27:00,72.5,51.6,29.63,South,190,2.0,8.0,48,0.00,,,0.13,meteohub,2013-06-29 01:27:00,
2013-06-28 21:32:00,72.3,52.2,29.63,SSE,168,5.0,8.0,49,0.00,,,0.13,meteohub,2013-06-29 01:32:00,
2013-06-28 21:37:00,72.0,52.3,29.63,SE,145,5.0,7.0,50,0.00,,,0.13,meteohub,2013-06-29 01:37:00,
2013-06-28 21:42:00,71.8,52.2,29.60,SSW,212,4.0,7.0,50,0.00,,,0.13,meteohub,2013-06-29 01:42:00,
2013-06-28 21:47:00,71.4,52.3,29.60,SE,145,4.0,7.0,51,0.00,,,0.13,meteohub,2013-06-29 01:47:00,
2013-06-28 21:52:00,71.4,52.3,29.60,SSE,168,4.0,5.0,51,0.00,,,0.13,meteohub,2013-06-29 01:52:00,
2013-06-28 21:57:00,71.1,52.5,29.60,SE,145,2.0,5.0,52,0.00,,,0.13,meteohub,2013-06-29 01:57:00,
2013-06-28 22:02:00,71.1,52.5,29.63,NE,55,0.0,5.0,52,0.00,,,0.13,meteohub,2013-06-29 02:02:00,
2013-06-28 22:07:00,70.5,52.5,29.63,SE,145,3.0,5.0,53,0.00,,,0.13,meteohub,2013-06-29 02:07:00,
2013-06-28 22:12:00,70.7,53.2,29.63,ESE,122,6.0,6.0,54,0.00,,,0.13,meteohub,2013-06-29 02:12:00,
2013-06-28 22:17:00,70.2,53.2,29.63,South,190,4.0,6.0,55,0.00,,,0.13,meteohub,2013-06-29 02:17:00,
2013-06-28 22:22:00,70.3,52.3,29.63,NW,325,9.0,9.0,53,0.00,,,0.13,meteohub,2013-06-29 02:22:00,
2013-06-28 22:27:00,70.2,53.2,29.66,WNW,302,5.0,15.0,55,0.00,,,0.13,meteohub,2013-06-29 02:27:00,
2013-06-28 22:32:00,70.3,52.3,29.66,NW,325,6.0,15.0,53,0.00,,,0.13,meteohub,2013-06-29 02:32:00,
2013-06-28 22:42:00,70.2,53.8,29.63,South,190,4.0,7.0,56,0.00,,,0.13,meteohub,2013-06-29 02:42:00,
2013-06-28 22:47:00,69.8,54.0,29.63,SE,145,0.0,7.0,57,0.00,,,0.13,meteohub,2013-06-29 02:47:00,
2013-06-28 22:52:00,69.6,54.1,29.63,SE,145,0.0,5.0,58,0.00,,,0.13,meteohub,2013-06-29 02:52:00,
2013-06-28 22:57:00,69.4,54.0,29.63,SSW,212,0.0,4.0,58,0.00,,,0.13,meteohub,2013-06-29 02:57:00,
2013-06-28 23:02:00,69.3,53.4,29.63,ESE,122,0.0,0.0,57,0.00,,,0.13,meteohub,2013-06-29 03:02:00,
2013-06-28 23:07:00,68.9,53.6,29.63,ENE,78,0.0,0.0,58,0.00,,,0.13,meteohub,2013-06-29 03:07:00,
2013-06-28 23:12:00,68.7,53.8,29.66,SSW,212,0.0,2.0,59,0.00,,,0.13,meteohub,2013-06-29 03:12:00,
2013-06-28 23:17:00,68.5,53.6,29.66,SE,145,0.0,2.0,59,0.00,,,0.13,meteohub,2013-06-29 03:17:00,
2013-06-28 23:22:00,68.4,54.0,29.66,NNW,348,0.0,2.0,60,0.00,,,0.13,meteohub,2013-06-29 03:22:00,
2013-06-28 23:27:00,68.0,54.1,29.69,NNW,348,0.0,0.0,61,0.00,,,0.13,meteohub,2013-06-29 03:27:00,
2013-06-28 23:32:00,68.0,54.1,29.69,ESE,122,0.0,3.0,61,0.00,,,0.13,meteohub,2013-06-29 03:32:00,
2013-06-28 23:37:00,67.6,54.1,29.69,ESE,122,0.0,4.0,62,0.00,,,0.13,meteohub,2013-06-29 03:37:00,
2013-06-28 23:42:00,67.5,54.0,29.66,ENE,78,0.0,4.0,62,0.00,,,0.13,meteohub,2013-06-29 03:42:00,
2013-06-28 23:47:00,67.5,54.5,29.66,NNW,348,0.0,4.0,63,0.00,,,0.13,meteohub,2013-06-29 03:47:00,
2013-06-28 23:52:00,67.1,54.5,29.66,SSE,168,3.0,3.0,64,0.00,,,0.13,meteohub,2013-06-29 03:52:00,
2013-06-28 23:57:00,66.7,54.7,29.69,SSW,212,3.0,5.0,65,0.00,,,0.13,meteohub,2013-06-29 03:57:00,